Theta_e
363 365 363 362 363 361 352 346 325 328 330 319 319 321 318 332 332 330 326 332 326 333 338 340 340 339 335 331 335 335 339 325 334 321 320 343 356 354 356 354 356 356 358 361 365 366 368 366 366 364 363 363 362 362 362 361 361 361 361 361 361 361 360 361 360 361 360 360 360 360 360 360 360 360 360 359 360 359 359 360 359 359 359 359 359 359 358 359 358 358 359 360 359 358 358 360 360
364 363 363 363 360 356 339 346 328 324 325 318 320 324 324 329 329 324 324 327 331 333 340 343 342 342 343 341 340 338 336 342 342 340 345 350 352 353 357 356 354 354 357 362 364 363 365 368 366 363 363 362 362 362 361 361 362 361 362 362 361 362 361 361 360 361 359 360 360 361 360 360 360 360 359 359 360 360 359 359 359 359 360 359 360 360 359 359 358 358 358 358 358 358 359 358 359
364 364 361 362 360 351 342 339 321 321 318 314 317 322 329 324 323 325 329 332 334 336 339 340 340 339 337 340 335 333 327 344 344 344 344 351 345 350 355 355 355 357 358 361 362 363 365 367 366 363 362 362 362 361 361 361 361 362 362 362 362 362 362 362 361 361 360 361 360 359 360 361 360 360 361 359 361 360 360 360 360 361 359 360 360 359 359 358 358 359 358 358 358 358 359 358 358
366 366 360 357 343 348 334 330 325 319 314 318 317 325 324 326 326 327 332 335 337 338 339 336 335 338 337 331 335 341 339 342 346 346 342 345 348 353 356 355 360 359 360 360 363 362 365 366 365 363 362 362 362 361 361 360 361 362 361 362 362 363 362 361 361 361 361 361 360 360 360 361 360 360 360 359 360 359 359 360 360 359 361 360 359 358 358 357 358 357 358 358 358 358 359 359 358
364 363 362 352 345 333 333 328 324 324 315 319 318 325 327 329 328 330 334 338 338 338 338 337 336 341 344 340 341 334 334 345 346 352 347 353 355 356 357 359 359 358 358 360 359 361 364 364 363 363 362 361 361 360 361 360 362 361 361 361 362 362 362 362 361 361 361 361 360 360 360 359 359 359 359 359 359 359 360 360 360 361 360 360 360 359 359 359 359 358 357 359 358 358 358 358 358
362 362 361 356 334 341 336 325 321 319 326 329 324 324 330 333 334 335 336 339 340 341 341 340 338 336 335 339 343 339 345 337 347 348 350 351 355 357 357 358 358 358 359 361 361 362 364 365 364 363 362 361 361 360 360 360 361 361 362 362 362 361 362 361 361 361 361 361 360 360 359 359 359 359 358 358 359 359 359 360 359 359 359 359 359 359 358 357 357 359 359 359 359 358 358 358 358
356 355 354 349 346 341 324 321 321 321 326 333 327 329 331 334 337 338 337 338 342 344 345 342 344 340 335 340 344 348 351 351 349 350 359 354 357 358 358 357 356 358 360 362 362 362 364 365 364 363 362 361 360 360 360 360 361 361 361 361 360 361 361 361 361 361 359 360 360 359 359 359 359 359 358 359 359 359 359 359 360 359 359 359 359 359 359 359 359 358 359 359 359 358 359 359 359
360 351 342 331 328 329 320 321 321 324 325 335 334 331 333 334 335 335 336 336 334 337 341 343 343 342 336 347 335 348 352 354 355 359 360 359 358 358 357 356 357 357 360 362 363 363 368 365 365 363 362 361 360 360 360 360 361 360 361 360 359 359 360 360 360 360 360 360 359 359 359 359 359 358 359 359 358 359 359 359 359 359 360 359 359 359 359 359 359 359 359 359 359 360 359 359 359
359 352 342 335 324 328 321 320 322 329 329 332 335 338 337 336 337 337 337 339 340 342 341 342 342 335 337 342 339 346 350 355 357 359 360 362 359 357 357 356 355 355 358 361 361 363 365 366 364 363 362 362 361 360 360 360 360 360 360 360 360 360 359 359 360 360 359 359 359 359 359 360 360 359 359 359 360 360 359 359 359 359 359 360 360 360 360 359 359 359 360 360 360 360 360 360 359
351 348 329 330 329 320 320 321 321 325 327 334 335 338 338 339 338 339 338 338 339 341 340 342 342 338 341 334 339 345 347 356 358 359 361 363 364 362 357 356 356 356 356 361 363 362 362 368 364 363 362 361 361 361 360 361 361 361 360 360 359 359 359 359 359 359 359 360 360 360 360 360 360 360 360 360 360 360 361 361 360 360 360 360 360 360 360 360 360 360 360 361 361 361 361 361 360
332 342 337 327 322 319 318 319 322 328 329 333 337 341 341 341 340 338 339 339 342 340 340 344 339 339 341 339 340 352 356 356 357 355 362 363 363 362 358 359 357 357 357 359 361 362 363 365 365 364 363 362 362 361 361 361 361 361 360 360 360 360 360 360 360 360 360 360 360 360 361 361 361 361 361 361 361 360 360 360 360 360 360 359 359 359 360 360 359 359 359 359 360 360 360 360 360
330 332 335 322 320 319 320 319 323 325 330 332 333 342 343 340 341 337 338 336 339 339 340 343 337 344 338 336 338 349 355 355 356 358 360 362 361 363 361 359 359 358 359 360 362 362 363 368 366 366 364 363 362 363 362 361 361 360 360 360 360 360 361 361 361 361 361 361 362 362 362 362 362 362 361 361 361 361 360 361 361 361 360 359 359 360 360 361 361 360 360 361 361 360 360 361 360
335 336 325 323 321 323 323 322 322 325 326 329 331 339 345 341 337 337 339 340 340 338 339 345 344 347 336 336 347 352 351 354 357 357 359 360 363 361 360 359 365 365 360 362 361 361 361 367 365 368 364 363 362 363 363 362 361 361 361 361 361 361 361 362 362 361 362 362 362 362 361 361 361 361 361 361 361 361 361 360 360 359 360 361 362 361 361 362 362 362 362 362 361 361 361 360 359
335 333 329 321 329 323 321 322 325 321 323 330 336 340 339 337 338 338 340 337 338 338 344 347 347 347 337 339 343 346 348 356 357 358 359 361 362 360 358 358 362 365 365 361 360 360 361 363 366 367 368 368 368 365 363 362 362 362 362 362 361 361 361 362 361 361 361 361 360 360 362 363 362 362 361 361 360 360 360 360 361 360 360 360 361 361 361 361 362 362 362 361 359 359 359 358 360
334 337 330 326 320 322 327 320 322 322 322 331 336 337 336 338 339 337 337 337 339 346 346 350 348 342 328 332 336 343 348 355 356 358 358 360 359 360 360 360 360 362 363 360 361 361 360 361 363 369 369 370 371 371 371 368 362 360 361 362 362 361 361 362 362 361 361 362 362 362 362 361 361 360 360 359 358 358 359 359 359 359 360 360 361 361 360 361 361 361 361 359 358 358 353 354 359
343 338 326 321 317 318 322 323 327 323 324 332 337 338 337 340 343 337 340 344 342 347 349 338 349 343 343 340 342 348 353 355 357 359 358 359 359 360 358 358 359 359 360 360 363 361 361 362 362 363 366 366 370 370 370 372 363 362 363 362 362 362 362 363 362 363 362 361 361 360 360 360 360 359 360 359 358 357 358 358 357 358 359 359 360 360 360 360 360 360 360 359 359 355 353 357 359
347 340 320 319 314 319 323 322 324 318 330 333 336 335 333 334 340 343 347 347 340 341 344 347 348 352 346 351 354 354 354 357 359 357 357 355 356 354 358 358 357 356 356 357 361 359 361 360 364 365 364 363 363 367 368 370 365 364 365 363 362 362 361 361 361 361 361 360 359 359 358 359 358 357 357 356 356 357 356 357 357 358 358 358 359 360 359 359 360 360 360 360 357 354 356 359 360
342 322 320 317 318 320 326 323 325 332 330 332 334 335 334 332 337 339 344 340 339 340 339 345 349 351 353 355 356 357 354 352 352 351 351 352 353 352 353 356 356 355 357 358 359 359 360 363 364 361 364 362 362 363 363 365 366 365 366 365 365 363 360 358 361 361 359 361 359 360 361 361 361 359 358 355 356 357 356 354 355 356 357 357 357 357 359 358 358 358 359 358 356 355 358 357 358
329 321 320 316 321 325 330 329 334 332 331 334 334 336 334 334 336 338 335 335 336 335 338 341 342 348 351 354 353 355 353 354 355 354 351 352 351 351 352 355 356 356 356 358 360 360 363 365 363 360 360 363 362 362 362 364 365 365 363 363 362 359 359 361 362 362 363 362 361 361 360 362 362 360 359 355 354 356 357 356 355 356 356 355 356 356 357 357 357 357 357 358 358 358 358 359 356
330 324 318 320 326 328 332 332 332 335 335 333 333 333 334 335 337 340 333 332 335 332 333 335 336 343 347 351 352 353 355 354 355 356 355 355 355 356 356 355 356 358 357 357 359 363 364 364 366 365 363 363 361 361 362 361 361 362 360 360 359 362 362 360 361 361 361 360 360 359 358 358 358 358 355 355 353 356 354 353 353 353 354 354 355 355 356 354 354 355 356 356 357 357 359 359 359
329 324 320 325 329 325 330 333 335 335 336 335 333 336 334 336 337 336 333 332 333 336 338 336 336 342 345 349 351 352 352 352 354 354 355 355 355 357 358 358 356 358 359 360 361 362 364 365 366 364 363 361 361 360 359 359 362 358 358 357 360 360 360 360 361 361 360 358 359 359 358 357 357 358 358 358 357 356 356 355 355 354 355 355 353 355 355 353 355 356 358 359 361 361 360 361 360
328 325 327 327 327 326 332 332 334 335 337 335 334 332 332 338 336 334 334 330 329 335 341 343 342 344 347 348 350 351 350 349 350 351 353 355 353 353 357 358 357 358 359 358 360 361 362 364 365 366 363 362 363 363 364 363 363 363 363 362 361 362 361 361 360 359 358 359 358 358 359 357 357 359 359 358 358 358 357 357 356 356 355 355 357 355 354 357 358 361 362 360 359 361 360 361 361
322 327 328 329 329 328 332 332 332 334 334 332 330 332 335 334 333 335 333 333 337 344 345 345 346 348 350 351 350 349 348 349 350 352 352 353 353 356 357 356 356 354 356 358 360 361 362 364 364 365 363 364 363 366 364 363 361 362 361 361 360 359 361 360 358 357 359 358 359 358 358 358 357 358 358 357 358 359 358 359 359 359 357 357 359 358 359 360 358 358 358 359 359 358 359 359 359
327 323 329 330 331 331 333 331 334 334 333 331 333 335 331 330 327 334 332 335 341 343 347 347 350 352 352 349 349 348 349 347 348 353 353 354 354 353 353 352 352 357 357 359 359 360 362 363 362 361 362 362 364 364 364 361 361 362 362 363 363 360 360 361 359 357 359 358 359 360 358 357 357 356 358 359 359 360 358 358 360 359 361 358 360 361 357 357 359 358 359 360 359 359 358 359 358
326 325 329 330 333 333 334 334 336 338 337 336 334 330 330 331 328 333 331 337 341 344 347 349 350 350 348 348 347 347 347 348 349 350 353 352 354 354 351 354 356 356 356 357 359 360 362 363 362 362 361 359 361 361 360 360 360 362 362 361 360 358 361 359 358 360 359 359 360 358 359 357 358 359 360 359 360 359 359 360 359 360 361 362 362 359 359 359 359 359 358 357 360 360 359 359 359
328 327 330 330 332 334 334 334 334 334 335 339 333 330 331 330 334 332 333 338 342 344 346 345 345 345 347 347 348 347 348 349 351 350 352 353 354 352 353 353 357 357 359 359 359 361 363 364 363 362 362 361 360 361 361 360 358 360 360 360 361 362 360 361 361 360 360 361 361 362 362 362 359 359 358 359 357 357 357 359 358 360 358 360 361 358 358 356 355 356 357 357 356 356 359 359 358
332 330 331 331 332 332 334 331 333 334 334 338 333 332 331 331 333 325 336 338 342 342 343 344 344 344 343 344 348 348 348 349 350 351 351 351 352 353 353 354 355 358 359 359 360 360 362 362 362 363 363 362 362 361 362 361 360 361 360 360 361 361 362 363 362 362 362 361 360 361 361 361 363 360 357 355 355 354 353 354 353 354 354 356 356 356 358 357 356 355 357 354 355 356 357 357 358
332 332 331 331 332 333 333 333 332 334 332 337 337 334 335 334 331 327 334 338 340 339 340 341 342 342 342 344 346 348 348 348 348 351 348 348 350 351 351 354 355 357 359 360 360 361 360 360 361 361 362 362 362 361 362 362 361 360 360 360 359 361 364 362 362 363 360 359 360 360 360 360 360 359 358 356 355 353 351 352 352 352 352 353 354 354 354 356 355 355 356 356 356 356 355 356 357
331 330 325 328 330 328 331 329 332 337 332 336 336 332 330 331 327 331 336 338 338 338 339 343 341 341 343 344 344 346 346 346 347 348 350 350 351 353 353 355 356 356 360 363 362 362 360 359 360 361 361 362 362 361 361 361 361 362 361 361 362 362 363 362 360 358 359 359 360 359 359 359 360 357 356 355 354 351 352 352 350 352 352 354 355 357 357 355 354 352 352 353 352 352 351 352 353
331 329 328 325 325 326 329 334 334 331 335 336 333 317 319 328 333 333 336 336 337 336 338 340 342 343 341 344 343 345 346 346 347 347 349 352 352 355 353 356 357 355 357 360 361 359 359 359 358 358 359 360 361 362 362 360 361 361 362 361 362 360 360 358 357 359 358 356 356 357 355 358 357 356 357 355 351 350 353 351 351 349 350 354 354 356 351 351 350 351 350 349 349 349 348 349 348
326 327 327 321 320 321 330 331 333 328 334 333 330 320 319 329 330 335 336 336 334 333 335 337 338 339 342 342 343 344 344 348 347 348 351 351 354 355 356 357 356 356 357 358 357 356 358 358 358 357 357 360 360 361 361 361 362 361 361 362 361 362 359 354 353 357 355 352 353 352 355 355 356 355 355 353 350 349 348 347 346 346 348 350 349 352 352 352 351 351 348 349 349 346 347 347 347
327 320 318 321 316 321 329 330 330 326 331 332 329 319 321 326 330 336 338 339 334 333 333 335 336 339 340 341 342 342 343 347 349 350 351 352 354 354 355 356 358 358 358 356 356 356 355 357 359 357 358 359 362 362 363 363 363 363 362 359 361 358 351 353 352 355 354 352 353 354 355 355 354 355 354 353 349 349 346 346 345 348 350 348 348 350 351 349 350 350 350 350 346 345 344 343 345
324 317 313 313 316 318 323 329 332 330 331 331 328 322 325 326 331 335 339 336 334 333 333 334 336 337 338 340 342 342 342 343 346 348 350 353 355 354 355 355 355 357 357 355 357 356 355 358 358 357 357 359 360 362 364 364 364 363 360 358 355 354 351 350 351 353 354 354 355 352 354 353 353 353 353 353 350 350 346 347 345 347 350 348 349 348 347 346 349 346 347 348 347 344 342 341 341
317 320 314 315 314 315 317 327 331 331 331 326 329 324 325 329 332 334 337 337 334 332 332 334 336 337 339 340 341 341 343 343 344 345 347 351 354 355 356 356 356 358 357 357 357 356 354 356 356 359 359 359 361 361 361 360 361 358 354 354 355 351 353 351 352 352 354 353 353 351 353 352 352 352 352 351 350 348 348 346 346 348 349 349 347 348 346 348 349 349 347 348 347 346 342 341 342
311 313 313 313 316 318 315 314 327 330 329 325 327 325 326 328 331 333 335 336 335 333 333 334 336 337 339 339 340 342 342 342 343 346 347 351 353 354 353 356 354 355 357 356 355 352 356 355 358 356 358 359 359 362 364 359 356 355 354 354 353 353 353 351 351 350 352 354 353 354 354 352 351 352 352 351 349 345 345 345 347 348 348 347 347 345 345 346 347 348 347 346 348 347 345 344 345
313 313 312 312 311 313 314 316 328 328 326 323 324 324 325 327 330 333 334 335 335 334 335 335 336 337 339 339 340 341 342 342 346 347 348 351 353 353 354 356 355 354 354 356 354 353 355 357 358 357 356 357 360 358 357 353 352 351 350 352 351 351 353 350 353 351 354 352 352 352 352 351 351 350 350 349 349 346 344 343 346 346 345 346 344 343 342 342 345 346 346 345 345 345 346 346 347
315 314 313 312 312 313 317 318 325 329 325 324 325 326 325 327 329 332 335 335 335 335 334 335 336 336 338 340 339 341 342 343 346 348 349 350 353 353 355 353 355 353 353 352 352 353 355 356 355 354 359 359 358 356 354 350 350 351 352 349 348 349 349 350 351 352 351 350 351 350 351 350 349 348 347 346 345 343 344 343 344 344 344 343 343 343 344 345 346 346 344 346 343 343 342 345 346
315 313 312 312 312 311 315 315 322 329 323 324 327 326 327 328 331 332 336 334 332 333 334 335 336 337 339 340 340 341 343 346 346 347 349 351 351 353 354 352 351 353 347 349 352 354 355 355 354 357 359 360 356 356 356 349 351 350 348 346 347 346 347 346 346 348 349 349 350 350 349 349 347 345 344 344 343 342 342 340 342 341 340 342 343 343 344 345 344 344 344 342 344 340 341 344 344
315 313 312 311 312 314 319 324 322 327 323 323 329 326 326 329 331 333 334 334 334 335 335 337 337 338 339 340 341 341 342 344 345 347 350 350 350 350 352 354 351 350 351 348 351 353 353 354 355 356 358 357 358 357 355 354 355 354 352 348 346 345 347 348 346 346 348 347 347 347 348 346 344 343 342 341 339 339 339 337 338 338 339 339 338 340 340 341 340 342 343 340 338 341 340 344 344
313 313 311 309 312 311 308 324 324 327 323 326 328 325 325 329 333 334 335 336 336 338 337 337 338 339 340 340 341 341 341 343 343 346 346 348 348 350 352 353 354 347 349 349 347 348 349 351 353 354 355 358 359 360 354 357 356 354 352 350 348 348 345 346 346 346 345 346 344 344 345 345 344 342 340 338 338 338 338 337 338 337 337 338 336 335 336 337 338 340 341 342 340 336 337 338 343
314 314 312 311 311 312 312 316 323 325 326 325 324 323 320 325 327 331 335 336 337 338 339 339 339 341 343 343 343 344 343 344 343 345 348 346 346 347 349 352 352 352 348 344 347 347 347 348 352 353 352 357 356 356 354 352 351 349 348 347 346 345 345 341 341 339 341 342 341 342 343 344 343 342 341 338 338 338 337 336 335 336 336 336 336 335 335 334 336 337 339 340 340 337 335 337 339
312 314 314 313 313 312 315 319 320 320 321 324 320 312 311 316 317 326 333 332 332 337 339 340 340 342 343 341 342 345 348 347 345 346 348 346 346 348 351 351 352 349 350 352 353 350 346 349 350 350 352 356 354 353 352 349 347 346 344 341 339 338 337 338 337 337 337 339 338 342 342 342 341 340 340 340 339 337 334 333 333 331 331 333 333 332 335 333 335 335 338 338 338 340 338 336 335
310 312 315 314 313 314 316 317 316 312 311 321 325 310 308 317 318 324 329 332 332 336 338 338 340 341 341 342 342 343 346 345 347 348 348 346 346 348 350 351 350 348 350 350 349 351 347 348 348 352 352 353 351 350 350 352 349 346 343 341 339 336 334 338 341 341 339 339 341 340 340 340 340 338 337 336 334 335 333 331 331 330 329 329 330 330 330 330 332 334 337 338 338 339 339 335 334
309 315 315 315 314 313 316 317 315 314 319 321 322 319 311 310 313 328 333 333 332 333 334 336 337 341 339 341 343 346 347 347 346 348 347 347 347 347 344 348 347 348 349 350 349 349 351 351 352 351 351 350 351 352 350 348 346 344 343 340 339 336 337 339 339 339 341 341 338 339 338 337 338 336 335 334 332 331 331 330 329 328 326 327 326 326 326 329 332 335 339 339 339 338 339 336 335
312 314 315 313 314 314 315 315 314 316 314 310 319 321 312 310 319 326 330 327 329 331 334 335 336 340 340 341 343 346 346 348 347 345 346 346 347 346 347 347 347 348 347 347 348 347 348 349 350 350 349 349 349 348 347 345 345 342 340 339 338 339 340 340 340 340 338 340 337 338 338 336 335 333 333 331 330 329 329 328 328 327 325 324 327 325 327 328 331 333 336 336 337 336 337 338 337
315 317 316 317 316 315 315 314 314 316 311 307 313 319 308 309 316 313 329 325 325 331 334 336 338 338 341 340 342 343 346 347 347 348 347 347 346 347 347 346 346 345 346 347 346 346 346 347 347 346 343 343 344 343 342 342 340 341 341 340 338 336 338 340 339 337 338 338 336 336 335 335 331 330 330 329 329 328 328 328 325 325 325 322 325 326 327 330 332 334 335 335 337 337 337 336 336
318 317 315 315 316 316 317 316 316 313 306 308 312 317 313 305 314 314 313 322 325 326 331 337 339 339 340 341 340 343 344 344 347 348 348 347 347 345 346 344 343 343 344 345 344 344 344 343 344 343 344 343 343 341 340 339 341 342 340 339 339 338 338 337 336 336 336 336 334 332 333 332 331 327 328 328 327 326 326 327 325 324 324 324 326 326 329 330 330 332 333 336 336 336 335 336 335
315 313 311 312 312 316 314 315 317 306 303 311 314 313 316 303 310 316 321 329 326 327 327 333 337 338 338 341 342 344 344 345 346 347 346 346 345 344 344 341 341 341 342 342 341 341 340 340 339 339 339 340 339 337 338 340 340 341 340 339 338 338 337 335 334 333 334 333 333 331 331 330 328 326 328 326 325 325 326 325 326 325 323 322 325 329 332 333 331 334 333 334 335 335 335 334 333
312 311 310 305 304 307 301 309 302 303 301 311 314 314 311 311 312 315 322 326 329 330 331 335 335 336 339 340 342 343 343 345 346 346 345 344 342 340 340 341 340 339 339 339 338 337 337 338 338 336 335 337 336 338 337 340 341 339 338 339 338 338 336 334 333 332 333 332 331 330 330 328 325 325 324 323 323 324 324 324 323 322 321 325 330 331 332 335 335 334 333 333 332 331 331 331 328
309 308 307 304 300 300 298 301 305 304 308 312 312 317 308 312 314 318 316 327 334 337 339 337 337 337 339 341 342 342 343 345 346 344 343 341 339 337 339 339 338 337 338 337 337 336 335 335 336 334 334 336 336 337 339 338 339 339 340 339 337 335 333 334 332 332 331 332 331 330 328 325 324 323 323 323 323 322 322 321 323 324 327 330 331 332 333 333 334 332 333 331 331 331 330 329 328
309 312 309 307 306 301 297 300 298 300 303 311 314 308 306 307 312 329 333 334 336 339 339 338 338 340 342 342 342 342 343 346 345 343 341 338 338 337 337 337 336 335 336 336 335 335 334 333 332 334 334 334 336 337 338 337 337 338 339 337 336 335 332 332 332 332 332 330 330 328 327 323 322 323 323 324 324 323 321 323 324 325 327 329 330 331 329 332 333 333 333 331 330 328 328 325 324
312 312 312 307 306 310 302 305 304 303 304 305 309 307 312 312 333 335 336 334 337 339 338 338 338 339 339 338 339 340 343 342 341 342 340 339 339 338 337 336 335 334 334 334 333 333 332 332 333 335 335 336 336 335 335 337 337 337 336 335 334 333 334 331 332 331 331 330 330 327 325 324 323 323 324 324 322 322 321 323 325 326 327 326 330 331 331 331 332 331 329 330 328 327 326 325 324
308 310 306 308 314 311 307 308 308 308 305 302 311 311 313 317 319 320 326 335 337 337 337 336 337 337 337 336 337 340 342 339 340 340 339 338 337 337 336 335 335 335 333 332 332 332 332 332 332 334 334 335 335 335 335 335 335 334 333 333 332 331 328 327 325 326 326 329 328 325 322 322 322 323 321 321 322 322 324 323 323 322 325 328 329 331 330 331 331 330 328 327 327 325 326 324 322
310 305 309 314 316 314 309 301 305 303 299 303 307 306 308 308 304 329 331 332 334 334 334 335 335 334 335 336 338 341 339 339 341 339 337 337 337 337 335 336 336 334 333 332 333 334 332 332 332 333 334 333 334 334 333 333 332 331 331 330 329 329 327 326 327 326 327 326 324 324 324 322 321 320 320 319 320 322 323 323 322 324 326 329 329 329 330 330 329 327 327 326 325 327 325 323 322
310 309 315 308 303 302 308 306 298 299 299 301 304 307 307 308 309 313 318 325 331 332 333 333 333 333 334 337 339 339 339 339 338 335 333 335 336 337 336 335 335 335 334 333 333 331 331 331 333 334 334 334 333 333 332 332 332 331 330 328 326 326 326 326 327 326 325 323 322 321 320 320 321 320 319 319 321 321 322 321 324 324 327 327 328 329 329 329 328 326 325 322 324 325 322 321 322
313 314 311 315 311 307 304 306 306 305 300 299 301 306 304 311 313 312 332 335 333 331 331 331 332 333 334 336 336 336 336 339 339 336 335 336 337 338 337 336 334 334 334 332 331 330 330 332 333 334 334 333 332 332 332 331 331 330 328 327 326 326 326 325 324 324 321 321 320 320 321 318 318 320 319 318 320 321 322 321 322 322 323 324 325 325 326 325 323 323 322 321 321 322 320 319 318
307 307 306 310 309 313 311 310 307 304 301 301 300 299 306 318 331 333 332 335 334 333 331 331 331 333 335 336 336 337 338 340 339 336 337 336 336 337 338 336 336 335 333 331 330 331 332 331 329 329 330 329 330 330 331 330 329 326 326 324 324 324 324 325 323 322 320 320 321 321 319 319 320 320 319 318 320 322 322 322 323 324 323 324 325 323 321 322 322 322 322 322 321 320 318 316 317
310 308 306 308 307 305 302 301 310 307 304 302 300 300 309 327 335 334 335 336 334 334 332 331 332 333 335 336 338 339 338 340 338 337 337 337 337 337 336 334 334 333 331 330 332 333 332 329 327 328 329 329 328 328 331 329 327 325 324 323 324 324 324 324 323 322 320 319 319 319 320 321 319 320 319 319 320 321 322 321 322 324 324 323 324 323 321 321 320 320 319 316 316 317 317 315 315
Wind_Speed
7 3 3 3 2 1 3 3 3 3 4 5 5 3 4 3 2 4 7 7 5 2 3 2 3 4 2 4 4 3 7 2 9 2 4 3 4 11 8 10 15 13 12 10 11 10 11 10 9 9 10 10 10 10 10 9 8 8 8 8 8 8 7 7 7 7 7 7 7 6 6 6 6 6 5 4 4 4 4 3 3 3 3 3 3 3 2 3 3 2 2 1 0 1 1 2 3
5 5 3 3 2 3 2 2 3 6 6 7 6 4 5 5 3 6 5 5 5 6 4 3 4 5 4 4 3 4 8 10 9 7 6 5 8 9 8 11 14 14 11 10 9 10 10 11 8 9 9 10 10 9 10 9 8 8 8 7 7 8 8 7 7 7 7 6 6 6 6 6 5 5 5 5 4 4 3 3 3 3 3 3 2 2 2 2 2 2 3 2 1 2 2 2 3
5 5 4 3 4 4 1 3 2 3 6 7 7 7 5 6 6 2 3 7 7 7 6 4 5 5 4 3 4 4 5 3 6 7 6 8 10 7 10 12 12 13 12 9 9 9 8 10 8 9 9 9 9 9 9 9 9 8 8 7 7 7 7 7 7 7 6 6 6 5 5 5 5 4 4 4 4 3 3 3 3 3 2 2 2 2 2 2 2 2 2 2 3 2 3 3 4
5 3 2 3 3 3 4 4 2 5 8 8 7 4 7 5 5 2 3 5 7 8 5 3 3 4 1 3 4 3 7 4 6 4 6 8 6 10 11 12 13 10 9 8 8 8 8 11 9 9 9 9 9 8 8 9 8 8 7 7 7 7 7 6 6 6 5 5 5 4 4 4 4 3 3 4 3 2 2 2 3 1 2 1 1 0 0 0 1 2 2 3 3 3 3 4 4
3 2 3 3 4 3 1 3 5 5 9 5 6 7 8 8 7 5 5 4 8 7 5 3 4 2 5 5 1 1 3 6 4 6 7 7 10 10 12 12 11 10 9 9 8 9 10 12 10 9 9 9 8 8 8 8 7 7 6 6 6 6 6 5 5 5 4 4 3 3 3 3 2 3 3 3 3 3 3 3 2 3 2 2 2 2 2 2 2 3 3 3 3 3 4 4 5
2 2 3 5 3 3 3 5 8 11 8 5 7 5 6 8 8 9 7 6 6 5 3 3 2 6 4 4 4 3 2 1 2 2 6 8 11 12 13 11 10 9 9 8 8 8 9 12 10 9 8 8 7 7 7 7 6 6 5 5 5 5 5 4 4 4 3 3 3 3 3 2 3 2 2 2 2 3 3 3 3 3 3 4 3 3 3 3 3 3 4 4 4 5 5 5 5
2 4 3 5 4 4 7 8 8 9 10 7 8 8 7 8 8 7 9 9 6 6 0 2 4 8 6 4 5 5 3 1 2 5 4 10 11 12 12 11 10 10 9 8 7 8 12 11 10 9 8 8 8 7 7 6 6 5 4 3 4 4 4 3 2 2 2 2 2 2 3 2 2 2 2 3 3 3 3 3 4 4 5 5 4 5 4 5 5 5 5 5 6 5 6 6 6
1 4 3 1 5 4 9 8 8 6 8 8 8 8 7 7 7 4 6 6 8 6 4 3 2 3 6 2 2 5 6 2 3 6 7 9 11 11 10 9 10 10 9 8 7 9 13 11 10 9 8 8 7 7 7 6 5 4 3 3 2 2 2 2 2 1 2 2 2 2 1 2 3 3 3 3 4 4 5 4 4 5 5 6 6 6 7 6 7 7 7 7 7 7 7 7 8
4 5 2 2 7 6 9 8 9 8 8 7 9 8 6 6 3 6 5 4 7 4 6 3 4 3 6 6 7 5 6 6 6 5 9 9 10 10 7 9 9 8 8 8 8 9 9 11 10 9 7 7 6 6 6 6 4 3 3 2 1 2 2 1 2 2 2 3 3 3 3 4 4 5 5 5 6 5 5 6 6 6 7 7 7 8 8 9 9 9 9 9 9 9 9 8 8
3 4 3 3 3 8 8 7 7 7 7 6 7 7 6 5 5 4 6 7 6 6 4 1 1 4 7 8 8 5 5 6 8 9 9 9 9 7 8 8 9 9 7 7 7 7 7 11 10 8 7 6 5 5 5 4 3 3 3 1 1 0 1 2 3 4 4 4 5 5 6 5 6 6 6 6 7 8 8 8 8 8 8 8 9 9 9 9 9 10 10 10 11 11 10 10 10
2 2 1 1 6 7 9 8 8 6 8 7 8 8 6 4 4 5 4 7 4 5 5 2 6 7 6 8 7 4 6 7 9 11 9 9 8 7 7 6 8 8 8 8 7 7 8 8 10 8 7 6 5 4 4 3 3 3 2 1 0 1 2 2 3 3 5 5 6 6 7 7 7 7 7 8 8 9 9 10 10 10 10 10 10 10 11 11 11 11 12 12 12 12 11 11 11
1 1 2 8 7 7 7 9 9 7 8 7 7 6 3 5 5 6 7 6 4 6 5 5 5 7 7 7 5 6 8 7 8 7 8 8 8 6 6 6 7 7 7 7 6 6 7 7 8 10 7 6 6 5 3 3 3 2 2 1 2 2 3 4 4 5 5 6 7 7 8 9 9 9 9 9 9 9 9 9 10 11 11 11 10 10 10 9 11 11 11 11 11 12 12 12 11
2 3 5 5 7 7 7 9 7 7 7 8 6 5 2 4 4 5 5 7 6 6 5 4 7 3 7 7 6 8 8 6 6 6 7 6 6 7 5 4 4 4 6 5 6 5 6 6 6 6 7 8 7 6 5 4 3 2 2 2 3 3 4 5 5 5 6 7 7 8 9 9 10 10 9 9 7 7 7 8 9 10 10 9 10 10 10 11 11 12 12 13 13 13 13 12 12
4 4 3 7 2 6 8 7 5 7 7 6 6 5 4 5 6 6 7 7 5 4 6 4 1 2 9 9 7 7 7 8 8 6 6 6 6 6 7 6 5 5 4 4 4 3 4 4 4 5 6 6 5 6 6 5 5 4 2 3 4 3 4 6 7 7 7 8 8 8 8 9 9 8 5 5 4 5 5 7 8 8 9 10 10 11 11 12 13 13 14 14 15 15 13 15 13
4 1 1 5 7 7 3 5 7 7 8 4 4 3 5 6 5 6 5 8 7 5 5 2 4 4 8 7 7 8 9 9 8 7 7 7 6 6 6 6 7 6 5 5 5 4 3 4 4 4 4 4 4 4 3 6 2 0 2 4 4 3 3 3 4 6 7 7 8 7 7 8 7 9 7 5 4 5 7 7 6 7 8 9 10 11 12 13 14 14 13 13 16 16 12 19 18
3 3 3 7 8 7 6 7 2 7 7 5 4 3 5 6 2 5 5 1 7 5 2 6 4 4 4 4 11 11 12 9 7 7 7 7 7 6 6 5 4 5 4 4 5 4 3 2 1 3 3 4 4 2 3 2 6 1 3 3 2 2 2 3 4 4 4 3 4 6 6 7 8 9 11 8 8 8 9 8 9 10 11 10 12 13 15 15 15 14 13 14 14 12 12 21 21
2 7 7 7 10 9 7 5 2 7 7 6 6 5 5 6 5 4 2 5 10 7 5 5 5 2 8 8 11 12 12 10 9 9 8 7 6 6 5 5 5 5 3 4 3 3 5 4 4 3 4 4 4 4 2 2 3 4 6 4 1 2 3 4 4 4 5 6 6 8 10 7 6 7 8 8 13 9 11 11 12 13 13 12 14 14 14 15 14 14 16 13 12 13 16 20 20
7 5 7 9 8 10 8 9 8 8 8 8 6 5 6 6 3 5 5 6 7 7 7 6 8 8 8 8 9 10 10 11 10 9 8 7 5 5 5 4 3 4 4 4 4 4 2 2 4 4 3 3 3 1 1 1 2 1 2 3 3 3 3 6 5 5 6 7 8 7 6 5 6 6 5 8 6 8 9 10 10 11 11 11 12 13 14 14 13 13 13 13 12 13 15 9 10
6 9 8 9 8 8 6 8 7 6 8 8 7 5 6 8 4 3 5 7 7 7 5 5 9 9 8 8 8 9 9 8 8 6 7 6 5 5 4 5 3 3 3 2 2 1 1 1 1 2 2 2 2 2 1 3 2 2 3 3 3 2 3 5 5 6 6 6 6 6 5 5 5 5 4 5 7 10 10 11 11 10 10 9 10 11 12 13 13 13 12 12 12 12 7 6 6
7 5 8 9 8 8 7 5 7 9 9 9 8 6 7 6 5 4 5 7 5 6 6 7 8 9 9 8 8 8 8 7 6 4 4 4 3 3 3 4 5 3 2 2 2 2 1 1 1 1 2 2 2 1 2 2 1 2 2 3 3 3 4 5 5 5 4 5 5 5 5 5 5 4 4 6 7 5 6 9 8 8 8 8 10 10 9 10 11 10 9 8 8 6 5 5 5
5 7 7 7 4 7 6 7 8 8 7 8 8 8 8 6 5 5 7 6 5 5 4 4 8 9 10 9 8 8 8 8 6 4 4 3 3 1 2 3 2 3 3 3 2 2 2 1 1 1 1 1 2 2 2 1 1 2 2 3 3 3 3 3 3 3 3 4 5 3 4 4 4 3 3 3 3 3 3 4 4 4 4 4 5 6 5 5 5 5 5 5 4 4 4 5 4
9 10 9 7 8 9 7 8 7 7 7 8 9 7 7 7 4 4 7 2 5 5 6 3 6 8 8 8 7 6 6 7 6 5 3 3 3 3 3 3 2 3 3 3 2 3 2 1 1 0 2 2 2 2 1 1 2 2 2 2 2 2 2 1 2 2 2 3 3 3 3 3 2 2 3 3 3 3 2 2 2 2 3 4 3 4 4 5 5 4 4 4 5 5 5 5 6
7 7 8 7 7 10 7 8 7 6 7 6 6 8 8 5 6 4 2 3 4 3 5 5 6 7 6 5 5 5 5 5 5 4 4 3 3 2 2 1 3 2 3 2 2 2 3 2 1 0 0 1 2 1 1 1 2 2 2 2 3 1 1 2 2 2 2 3 3 3 3 2 2 2 2 2 2 1 1 2 2 2 2 2 2 3 4 4 4 5 5 5 5 5 6 6 6
7 8 8 8 9 9 7 8 5 4 5 7 7 6 6 7 7 4 2 5 5 6 5 6 6 5 4 5 4 4 3 3 3 3 2 3 1 1 0 1 1 2 1 2 2 2 4 2 2 2 1 1 1 1 1 1 1 1 1 1 1 3 2 2 2 3 3 3 3 2 3 2 2 2 2 1 1 2 2 3 2 1 2 2 1 2 4 5 4 4 5 5 5 5 6 6 6
8 8 8 9 8 9 8 7 6 5 6 5 5 6 6 2 6 6 6 6 7 8 8 7 6 5 4 4 4 3 2 3 2 2 1 0 2 1 1 1 2 1 2 1 2 2 4 3 2 2 1 1 1 0 2 2 1 1 2 2 2 2 1 2 3 2 2 2 2 3 2 3 1 1 1 2 2 3 3 3 3 3 3 3 3 2 4 4 4 5 5 5 5 5 5 5 5
5 10 9 9 9 9 8 8 7 6 4 3 5 6 4 6 8 5 7 6 7 8 9 9 8 7 6 5 4 4 3 3 2 3 3 3 2 2 2 1 2 2 2 2 1 2 4 2 2 2 1 1 2 2 2 1 1 2 2 2 2 1 2 1 1 2 1 1 2 2 1 1 2 3 4 4 4 5 4 3 3 3 3 3 3 3 4 4 5 5 5 5 6 6 5 5 5
7 10 10 10 9 9 7 8 7 4 5 4 5 6 6 6 7 6 5 7 8 9 9 9 8 7 7 5 4 4 3 3 2 1 2 2 2 2 2 2 2 2 2 2 1 2 4 2 2 2 2 3 2 2 2 2 1 2 3 2 1 1 1 1 1 2 2 2 3 2 2 3 2 3 4 4 4 4 4 4 5 4 4 4 4 4 4 4 5 5 5 6 6 6 6 5 5
9 10 11 9 8 7 7 7 7 7 6 3 3 5 4 4 6 4 10 9 9 9 10 10 8 7 5 5 5 3 3 3 2 3 3 3 2 1 2 1 1 2 2 3 3 4 4 3 3 3 3 3 2 2 2 3 3 3 4 3 2 2 2 1 2 2 3 3 4 3 3 3 3 4 4 4 4 4 4 4 4 4 4 4 4 4 5 4 5 5 5 5 6 7 6 5 6
10 11 7 8 8 7 9 8 7 5 5 6 4 4 6 6 4 10 11 10 9 9 10 8 7 6 6 6 5 5 4 4 4 3 2 2 1 1 1 1 2 2 3 4 4 4 4 3 3 3 3 3 3 3 3 3 3 3 3 2 3 3 2 2 3 3 3 4 4 4 5 5 4 4 4 5 4 4 4 4 4 4 4 5 4 5 6 5 4 4 5 5 5 6 6 6 6
9 6 2 7 6 7 10 6 7 6 5 7 6 3 5 8 6 11 12 11 10 10 9 9 7 6 6 6 6 6 5 5 4 3 3 2 1 1 2 3 3 2 2 4 4 4 3 2 2 2 3 3 3 3 3 3 3 3 2 3 2 2 2 2 3 3 4 4 5 6 5 5 5 4 4 5 5 4 4 4 5 5 5 6 5 4 5 4 5 5 5 5 6 6 6 6 6
5 3 4 2 5 5 13 9 10 8 6 8 7 4 6 9 10 11 11 12 12 11 10 9 8 8 6 5 5 5 5 4 4 5 4 3 2 2 3 4 3 2 2 4 4 4 4 3 2 3 3 4 4 4 4 4 3 3 3 3 3 3 3 3 4 4 4 4 4 5 5 5 5 5 5 5 5 5 5 4 5 6 6 6 5 5 6 6 5 6 6 6 6 7 6 6 7
3 7 5 3 5 6 10 10 12 8 6 9 7 6 5 9 11 12 10 11 12 10 10 10 9 8 8 6 5 5 5 5 4 5 5 4 3 3 4 4 4 3 3 2 4 3 3 4 3 4 3 4 5 5 4 4 4 3 3 3 4 4 4 4 4 3 3 3 4 4 5 5 5 5 5 5 5 5 5 6 6 6 7 6 6 6 6 6 6 6 6 6 7 7 8 8 7
4 5 4 2 3 3 6 12 11 9 6 9 11 4 3 8 10 13 12 12 12 10 10 11 10 10 9 7 6 6 6 7 6 6 6 5 4 4 4 4 3 4 3 3 3 4 4 5 5 6 5 4 6 5 5 4 4 3 4 5 5 4 3 3 3 3 3 4 3 4 4 5 5 5 5 5 5 5 6 6 6 7 6 6 5 5 5 5 6 6 6 6 6 6 7 8 7
5 4 5 3 5 4 2 10 10 11 8 8 11 8 4 7 11 13 13 13 13 11 11 11 10 9 9 8 8 7 7 7 7 7 8 6 5 5 5 3 4 4 5 5 2 3 4 4 5 6 5 5 5 5 4 4 5 4 4 5 4 4 4 3 3 3 3 3 4 4 5 5 5 5 5 5 5 6 6 6 6 6 6 6 5 5 5 5 6 6 7 6 6 6 6 6 6
4 2 3 1 3 5 7 4 10 12 13 10 9 11 10 5 10 12 13 13 13 12 11 11 11 11 10 8 8 8 8 7 8 7 8 7 7 6 8 6 4 3 3 6 4 2 3 4 5 6 6 6 5 5 5 6 5 5 5 4 4 3 3 4 3 4 4 4 5 5 5 4 5 5 6 6 6 6 6 6 6 6 6 6 6 6 6 6 7 7 7 7 6 6 6 6 6
6 7 7 7 7 3 1 5 9 12 12 11 11 10 10 10 9 12 12 13 13 12 11 10 11 11 11 10 9 8 7 8 6 8 9 7 6 6 8 7 6 4 2 4 7 3 3 5 5 5 6 6 5 5 5 5 4 3 4 4 3 3 3 4 4 4 4 5 5 5 5 5 6 6 6 6 6 6 6 6 6 7 6 6 6 6 7 7 8 8 8 8 8 7 5 4 5
6 7 7 8 6 4 4 3 5 9 8 11 12 12 10 8 11 12 13 13 13 13 13 11 11 11 12 11 10 9 8 8 7 8 8 8 7 6 6 8 6 7 5 3 6 4 4 4 4 6 5 5 4 4 3 4 3 3 2 3 3 3 3 3 4 4 5 5 5 5 5 5 6 6 6 6 6 6 6 6 6 7 7 6 6 6 7 8 7 8 7 7 8 7 6 5 6
7 8 8 7 6 5 5 4 3 7 9 6 11 11 12 10 9 12 13 14 15 15 14 13 13 13 11 13 12 10 9 8 9 8 8 8 7 8 7 9 8 8 7 3 4 5 4 6 5 6 4 3 3 1 2 3 2 2 2 2 2 3 2 2 4 4 4 4 5 5 5 6 6 6 6 6 6 7 7 6 6 7 7 7 6 7 7 7 8 8 8 7 7 7 5 5 6
7 7 7 8 4 7 6 2 2 5 7 6 3 9 10 11 10 11 14 15 13 14 14 14 14 13 11 12 13 12 11 10 10 9 9 8 8 8 7 6 10 7 10 7 6 6 5 5 5 5 5 4 3 2 3 3 2 2 2 3 2 4 4 5 5 5 4 5 5 6 6 6 5 6 6 6 6 7 7 7 7 7 7 7 7 7 7 7 7 9 9 8 8 7 6 4 6
8 8 8 7 5 8 0 5 3 5 5 3 2 8 7 7 9 12 13 15 13 13 15 14 13 13 13 13 13 14 14 12 11 11 10 9 9 8 7 6 6 11 9 8 7 5 3 3 4 3 4 4 3 4 2 4 4 5 5 3 3 3 4 4 4 3 4 4 5 5 6 5 6 6 7 7 6 7 8 8 8 8 7 7 7 7 8 7 8 8 8 9 8 8 7 7 6
9 9 8 8 9 5 7 3 2 4 7 4 6 7 6 6 8 10 13 14 13 13 14 14 13 11 11 11 12 13 16 15 12 11 11 10 9 8 8 6 6 6 9 10 9 11 6 1 1 5 2 4 4 5 4 4 4 5 5 5 5 5 3 2 2 3 3 3 3 5 5 5 6 6 6 7 7 7 8 8 9 8 8 8 7 7 7 8 7 8 8 8 8 7 8 8 6
9 11 9 8 8 7 1 3 5 4 7 8 8 6 6 0 9 12 10 12 15 14 14 16 14 12 11 13 14 13 14 14 14 13 12 11 9 9 8 8 6 5 6 7 7 10 11 9 4 5 7 6 6 7 7 5 3 4 4 3 2 2 2 2 2 3 3 4 4 3 5 5 6 6 6 7 7 7 8 9 9 9 9 8 7 7 6 7 6 8 8 8 9 8 8 7 7
10 5 3 4 6 5 3 4 6 6 3 4 7 7 5 5 6 9 9 12 15 13 16 16 15 14 13 12 13 14 15 15 14 13 11 11 10 10 9 7 6 6 6 6 8 7 10 10 9 8 6 6 6 6 5 4 4 2 0 1 2 2 3 3 3 2 2 2 3 4 4 5 6 6 7 7 7 8 8 8 9 9 9 8 8 7 7 8 7 7 7 8 8 8 8 8 8
9 3 2 3 7 6 5 6 7 5 1 4 6 6 7 6 2 3 8 9 12 14 16 17 15 16 15 14 14 15 15 15 14 14 13 12 11 10 8 6 7 7 7 7 7 8 9 10 10 9 7 7 6 5 4 3 2 2 2 3 2 2 4 4 3 3 2 2 3 4 4 4 6 6 6 7 7 8 8 8 9 9 9 9 8 7 8 7 7 6 7 7 7 7 8 8 8
6 4 2 5 6 6 7 8 7 4 7 5 5 5 6 7 2 5 8 9 12 14 16 18 18 16 15 15 15 16 16 15 14 14 14 14 12 13 11 9 9 9 9 7 8 8 8 10 10 10 9 8 7 7 5 5 4 2 2 3 3 3 3 2 2 2 3 3 3 4 4 4 3 4 6 7 7 8 8 9 9 9 10 9 8 7 7 8 8 7 7 7 8 8 7 8 8
8 2 3 5 5 7 8 8 6 3 6 9 5 8 8 7 4 3 7 5 8 12 15 16 16 16 15 15 16 16 14 14 14 14 14 13 13 13 13 12 11 11 10 9 9 9 10 10 11 11 10 8 8 9 7 6 5 2 3 3 3 3 3 2 3 3 3 3 3 3 4 4 6 6 6 6 6 7 8 10 10 11 10 10 8 8 8 7 5 6 6 7 8 9 7 8 8
5 4 6 6 6 5 4 6 5 6 8 7 8 8 8 9 3 4 3 3 4 5 4 7 9 12 13 14 15 15 15 15 14 15 15 14 14 14 13 13 13 11 10 10 10 10 10 10 11 11 10 8 8 8 8 6 4 3 3 4 4 3 3 3 3 3 3 3 4 4 5 4 4 5 6 6 7 8 8 9 10 11 10 9 8 8 7 7 6 5 6 7 8 9 8 9 9
7 8 10 7 7 2 6 3 3 7 8 2 3 8 8 10 6 5 2 3 3 1 2 2 4 9 12 13 15 16 16 15 16 16 15 16 15 13 11 13 13 12 11 10 10 10 10 10 11 12 10 9 8 8 6 6 5 5 5 5 4 4 4 4 4 4 4 4 4 4 4 4 5 6 6 6 8 10 8 8 10 10 9 8 8 7 7 7 6 6 6 6 7 8 9 8 9
9 10 10 11 9 7 10 7 10 10 10 3 1 3 7 9 10 13 2 4 4 2 6 11 10 11 14 14 17 16 16 17 16 14 15 14 13 12 9 10 11 10 10 11 11 10 10 10 11 11 10 9 8 7 6 6 6 5 4 4 5 5 5 4 4 4 4 4 4 4 4 5 6 6 6 7 9 11 10 10 10 9 8 8 8 7 6 6 6 5 6 7 8 9 8 8 8
12 12 11 11 11 11 11 12 9 9 8 0 5 0 10 8 10 6 14 3 2 7 10 13 12 12 15 16 17 16 16 17 16 17 17 15 15 15 12 9 8 9 10 10 10 10 10 9 10 11 10 8 7 6 6 7 6 5 4 4 4 4 4 4 4 5 5 4 3 4 5 5 4 6 7 8 9 11 10 10 9 8 8 8 7 6 5 6 6 6 7 7 7 7 8 8 7
14 13 13 12 11 10 12 9 11 10 9 3 2 6 6 9 4 1 0 3 5 10 11 12 12 14 15 16 16 17 17 14 15 17 16 15 13 14 13 10 8 8 9 8 8 9 9 10 9 10 10 8 7 7 6 7 5 5 5 5 5 4 5 5 5 4 5 5 5 5 5 6 6 5 6 6 8 10 10 9 8 8 8 6 6 6 5 6 6 7 6 7 7 7 7 8 7
9 12 12 14 13 9 13 9 9 8 7 6 6 6 4 7 4 2 2 2 8 12 13 13 15 14 15 15 15 15 14 14 15 16 15 14 14 12 12 11 10 11 10 9 10 9 9 9 9 10 9 8 7 7 7 5 5 5 6 6 6 5 4 4 3 3 3 4 5 5 4 4 6 6 6 7 8 9 9 9 8 7 6 7 6 6 7 6 7 7 7 7 8 7 8 9 8
9 9 12 11 9 12 11 9 6 8 10 11 7 8 10 8 9 9 9 3 12 13 15 15 15 14 14 15 14 13 14 14 14 15 13 14 11 13 13 11 11 10 11 11 10 9 10 10 9 9 8 8 8 8 6 5 5 6 6 5 4 4 5 5 5 6 5 5 4 4 5 5 6 6 7 8 8 8 8 8 6 7 7 6 6 7 7 7 6 6 7 8 8 9 8 8 8
8 9 10 5 3 7 8 10 5 7 12 8 5 10 9 8 6 4 4 8 14 14 14 15 13 13 14 13 14 14 16 17 18 16 16 17 17 19 16 11 13 13 13 13 13 9 8 9 9 9 9 9 8 7 6 6 6 6 5 5 6 7 6 5 5 5 4 4 4 4 5 6 6 7 7 7 7 8 7 7 7 7 7 7 7 8 8 8 8 7 7 7 8 8 8 7 7
13 6 6 11 9 13 10 7 14 11 11 9 9 9 11 10 9 5 3 9 14 13 13 13 14 12 13 14 14 15 17 17 17 16 14 14 15 16 14 15 15 15 14 14 12 11 9 9 9 9 10 9 8 6 6 5 5 4 5 6 7 6 5 4 4 5 4 4 5 6 6 6 7 7 7 7 8 7 7 7 6 6 6 7 7 8 8 7 8 8 8 7 9 9 8 8 8
13 10 10 6 9 9 10 9 11 10 11 10 9 8 9 7 5 3 7 12 12 13 12 12 13 14 13 14 15 17 17 17 16 13 14 15 15 14 15 15 15 15 14 13 13 11 11 9 9 9 8 7 8 7 6 6 6 5 6 6 6 5 5 5 4 5 5 6 7 6 6 7 8 7 7 8 7 8 8 8 7 8 8 8 8 8 8 8 8 8 8 8 9 9 9 9 9
12 12 12 7 9 3 8 3 8 8 10 10 10 10 5 5 7 8 10 10 11 12 14 13 13 14 14 15 15 16 16 16 13 14 15 15 14 13 14 15 15 14 13 12 12 12 10 9 10 10 10 9 8 7 7 6 6 6 6 7 7 6 6 5 6 5 6 6 6 6 5 5 6 7 7 7 6 8 7 7 8 7 8 8 9 9 8 8 9 9 7 7 9 9 9 8 8
10 11 13 11 9 10 11 11 6 10 8 10 10 9 5 8 5 6 9 10 12 13 14 14 15 15 15 14 15 15 15 14 14 14 15 15 14 14 15 14 14 13 13 13 11 10 9 9 9 10 9 8 8 7 6 6 6 6 7 7 7 6 6 5 5 5 6 6 7 6 6 6 7 7 7 7 7 8 7 8 8 8 8 9 8 9 9 9 9 9 9 8 9 9 9 9 8
Wind_Direction
134 155 136 157 214 227 220 186 206 140 216 91 114 163 98 88 55 120 99 143 112 8 85 87 73 88 10 55 54 31 16 160 18 301 83 63 135 139 134 140 133 138 137 133 132 135 133 127 128 129 129 126 123 123 122 117 111 103 100 103 104 101 97 97 97 93 89 90 89 86 86 88 90 93 87 91 85 90 93 108 100 102 87 84 67 61 55 29 21 21 32 21 9 238 268 268 265
145 148 167 161 208 240 169 99 279 152 129 98 71 61 53 79 86 43 123 140 122 138 132 91 71 79 58 72 87 127 68 39 33 74 84 89 129 127 137 145 143 137 133 133 141 136 132 127 127 133 129 129 125 127 121 112 109 102 100 97 95 99 97 95 89 86 83 84 81 75 72 71 79 78 89 92 91 80 92 89 83 78 79 72 77 64 35 16 11 1 336 350 323 307 292 284 277
156 167 164 199 212 235 317 187 233 108 105 92 65 39 86 75 80 95 107 121 118 133 125 94 66 39 72 60 127 356 95 57 65 49 74 129 136 144 150 146 140 134 134 135 135 135 129 123 134 135 133 132 131 128 118 113 107 105 100 98 93 91 92 87 85 85 86 78 79 82 82 78 63 60 64 73 70 75 74 82 85 84 82 74 61 44 26 13 7 353 332 322 326 299 288 283 275
171 191 210 222 180 213 215 165 90 99 89 89 91 72 75 87 108 117 132 128 131 137 139 103 78 297 339 113 36 266 79 91 33 76 112 163 133 146 151 141 132 135 134 132 136 129 125 128 137 137 139 136 134 125 116 111 108 103 98 100 97 88 85 80 80 82 84 89 92 91 82 80 75 74 57 42 40 43 47 45 49 41 43 50 45 38 224 309 277 311 310 300 298 297 288 276 278
183 137 242 238 269 158 183 53 52 59 67 52 86 90 80 60 88 137 133 137 141 144 134 103 103 77 360 64 75 19 81 74 66 303 115 108 124 141 143 137 141 138 137 138 134 124 126 124 139 139 141 139 130 125 114 112 105 100 100 94 92 92 90 88 85 87 83 85 76 80 84 69 65 64 42 38 15 357 2 10 358 2 335 345 334 319 308 302 298 272 278 274 277 283 280 279 278
185 185 175 239 330 37 241 101 77 70 49 56 87 63 80 86 89 106 124 138 143 150 131 194 75 166 160 61 11 49 28 193 25 78 107 115 130 140 140 145 140 137 129 131 129 132 132 133 140 141 141 132 125 121 113 109 101 97 99 96 88 88 92 91 88 84 73 70 74 40 57 46 39 18 33 26 348 350 341 333 335 329 315 310 307 307 293 286 285 281 277 286 281 276 283 277 265
163 195 191 232 210 208 63 68 72 78 60 47 83 95 89 96 102 111 119 129 138 131 200 113 121 136 133 134 117 78 61 50 194 76 10 123 127 141 144 148 138 130 131 137 130 131 124 137 138 141 140 135 133 123 122 121 115 108 101 88 90 90 84 90 84 68 75 52 27 38 8 8 6 345 340 344 329 318 316 310 312 308 302 294 303 297 300 290 286 283 277 270 266 264 261 269 270
38 262 161 195 82 98 78 75 67 48 79 63 75 92 84 88 119 111 118 143 142 166 142 115 139 330 69 194 110 95 94 58 73 115 121 127 136 142 151 143 140 139 142 136 138 119 121 141 143 142 146 144 141 132 129 125 112 106 97 91 67 68 89 70 43 32 15 18 346 337 329 324 311 307 306 299 298 299 294 291 289 290 294 293 287 292 292 289 281 278 272 266 263 257 251 249 257
192 250 199 171 84 79 83 73 78 69 85 80 83 87 90 82 85 134 116 93 122 131 147 152 58 265 109 121 89 97 70 113 123 119 125 130 135 140 152 149 141 138 142 144 132 142 141 139 147 150 146 145 144 138 132 129 125 115 103 88 59 31 14 346 353 350 334 325 309 302 302 301 296 292 291 289 290 281 284 283 283 280 279 281 280 276 277 280 281 283 281 276 271 265 259 253 252
209 256 96 76 117 85 82 81 74 60 76 73 84 93 96 105 107 125 127 127 116 125 100 351 314 70 128 111 118 104 91 113 129 130 125 125 130 143 154 144 132 144 150 135 137 143 139 141 146 149 148 143 142 141 134 126 138 131 134 141 138 356 337 326 325 323 318 309 305 305 304 300 297 288 287 287 288 290 286 288 284 279 275 275 276 275 275 274 276 270 269 272 271 270 266 262 257
100 244 297 265 79 79 71 89 85 96 85 97 95 84 84 104 111 114 109 97 117 113 120 164 122 119 123 88 71 93 110 132 130 122 127 129 140 154 148 135 150 160 147 146 149 141 146 150 145 143 148 153 141 142 146 141 141 163 186 167 209 253 282 299 282 290 289 287 287 286 290 287 289 293 288 284 282 285 287 289 289 288 285 283 283 283 280 280 277 278 275 272 273 270 268 267 266
11 324 225 64 55 66 80 84 87 91 98 105 90 94 106 103 120 124 128 131 130 119 108 255 114 145 117 101 108 118 122 117 100 107 128 139 152 146 143 162 150 157 148 142 147 151 142 141 161 143 154 160 157 150 166 172 162 187 216 235 255 275 278 292 295 286 291 294 298 297 292 293 289 289 291 288 285 284 287 286 289 289 288 291 292 290 291 289 281 278 278 277 273 272 270 271 270
350 289 59 69 70 79 107 85 79 101 96 68 89 92 131 161 124 120 121 112 129 127 106 68 108 258 125 121 110 117 114 102 117 126 143 147 134 145 159 131 144 153 142 148 153 143 138 157 150 159 151 164 166 169 175 178 190 196 233 263 279 289 286 278 285 289 291 297 299 299 295 290 294 297 307 310 325 336 327 312 300 297 298 294 286 283 281 282 284 281 279 274 272 271 271 272 276
337 2 18 86 98 80 73 97 111 82 70 76 83 117 129 133 123 118 130 124 123 98 100 111 251 109 98 120 134 131 119 136 136 138 134 144 145 150 151 135 163 159 158 151 141 147 153 155 144 156 158 179 172 176 176 184 186 200 213 240 247 265 285 292 292 298 298 296 298 310 326 328 337 340 342 347 351 343 316 313 304 293 290 291 290 287 284 281 280 282 283 282 281 276 286 292 274
15 311 67 92 94 89 26 67 64 84 84 97 70 119 110 80 117 132 120 104 84 92 123 69 45 302 133 154 132 124 133 129 134 139 130 126 137 137 139 144 158 164 173 163 156 172 181 174 179 145 155 177 175 195 169 166 156 224 360 356 2 327 316 334 325 318 321 332 335 325 317 304 302 297 305 312 301 298 307 299 296 304 293 287 288 287 286 286 284 286 289 288 282 283 304 280 278
323 287 49 70 61 67 74 94 126 88 96 88 100 108 111 107 89 131 85 69 116 114 227 120 20 37 74 86 114 129 124 125 134 138 129 133 134 133 137 148 154 168 173 174 163 185 192 178 269 175 181 182 192 197 168 183 128 126 109 104 91 31 16 356 353 349 345 335 336 326 317 312 299 294 296 297 288 286 285 288 288 282 281 285 288 289 287 286 282 279 276 272 277 282 275 271 266
270 259 57 51 70 59 30 45 285 76 102 110 131 133 124 105 77 69 109 142 140 126 132 64 57 83 73 87 111 122 132 132 144 145 143 142 144 133 141 151 153 162 159 156 180 171 177 193 208 224 203 212 210 195 202 180 116 156 162 138 126 62 17 5 340 302 294 291 292 293 293 286 287 290 293 290 292 293 284 274 276 276 276 277 279 285 284 279 279 276 274 272 280 291 265 263 265
253 41 64 61 63 61 34 55 67 112 121 121 134 109 114 116 126 101 153 132 118 127 112 103 101 74 90 99 116 127 136 143 146 155 150 145 152 140 148 130 156 145 155 144 175 182 180 177 201 217 219 202 223 233 206 229 192 218 313 307 301 324 332 332 302 307 304 295 292 286 291 291 286 281 289 295 298 296 291 289 286 285 285 283 283 283 279 279 279 281 280 280 273 257 260 266 266
10 75 54 66 55 63 47 76 88 127 117 133 117 132 96 95 136 116 136 126 136 123 104 123 110 103 108 109 119 137 146 146 155 169 149 152 154 140 149 138 145 132 130 151 137 92 101 153 241 214 220 203 220 238 240 238 238 296 292 297 303 314 317 302 314 312 307 302 303 303 305 301 292 291 292 301 307 307 305 304 301 299 306 301 288 283 283 286 285 281 280 279 286 283 260 234 254
29 27 74 71 74 80 62 65 84 99 130 128 134 122 105 117 121 163 144 128 147 132 137 141 141 126 126 126 129 134 144 146 153 155 159 155 133 144 141 149 140 146 134 144 129 139 188 238 182 228 215 196 238 247 252 255 295 321 304 315 308 320 315 312 314 315 311 321 318 326 316 304 297 304 295 281 288 299 301 302 304 305 302 301 286 283 281 283 288 289 282 280 272 255 264 254 248
17 61 67 92 91 104 84 100 102 114 124 124 116 126 123 137 126 170 126 139 129 115 99 126 143 142 132 135 139 143 150 149 155 159 153 156 142 153 137 158 130 137 155 163 159 152 148 199 227 182 190 221 230 234 249 268 330 254 265 280 300 304 309 321 322 331 338 337 332 328 325 317 322 330 327 325 325 317 321 317 325 316 305 289 303 291 298 289 277 270 265 266 287 285 275 277 267
77 65 76 98 102 91 93 100 106 103 106 123 134 134 105 132 156 140 175 124 112 111 125 104 125 137 133 137 138 145 154 152 148 153 141 136 143 161 152 139 116 155 142 198 136 120 129 135 205 177 191 222 242 254 269 5 266 282 299 327 310 324 326 333 341 335 357 7 342 328 325 315 342 360 358 353 349 347 337 344 342 320 325 324 311 283 274 281 291 301 295 297 298 297 291 287 283
83 88 76 72 82 103 114 106 111 130 134 122 108 101 133 156 125 128 110 51 76 92 102 112 120 118 117 120 137 148 157 152 149 143 148 121 130 123 150 180 147 179 178 126 137 100 116 146 159 214 238 228 228 310 297 304 329 343 320 349 321 24 342 358 14 11 18 28 16 12 352 9 10 6 11 7 353 356 1 353 6 351 319 298 296 298 305 299 302 301 300 293 290 287 286 279 269
67 91 89 85 99 105 114 108 129 119 110 87 102 154 125 137 137 140 115 87 92 107 117 126 113 112 113 129 143 143 143 143 128 101 51 92 94 130 102 192 109 88 156 116 164 156 115 114 116 158 152 304 44 56 346 345 29 337 43 13 345 24 344 31 28 26 21 50 35 41 11 18 25 6 357 27 7 16 30 14 12 350 318 307 340 300 307 307 302 292 287 281 275 270 270 275 283
103 107 104 104 105 111 116 120 113 96 90 117 147 135 116 141 108 173 103 107 120 126 129 134 132 132 144 149 153 147 164 142 145 127 98 131 116 145 188 134 107 122 114 135 99 116 99 94 109 103 92 119 100 216 83 57 50 57 46 27 32 31 26 32 31 49 38 53 68 39 36 42 28 296 353 23 10 20 17 10 359 346 332 335 326 310 287 295 291 287 287 290 280 279 278 277 277
86 111 121 125 118 123 127 128 130 132 125 142 154 108 140 112 143 108 114 123 127 130 137 148 153 156 164 170 158 172 175 155 180 162 180 176 167 181 153 143 141 141 77 104 160 99 105 111 103 85 81 79 79 85 85 119 111 105 73 55 56 105 80 84 107 100 108 95 88 81 51 75 23 19 18 19 14 15 11 10 3 358 336 327 313 304 296 292 304 305 306 301 304 294 284 279 276
120 124 122 122 127 132 145 141 135 146 129 175 154 150 142 148 223 118 151 139 142 149 149 153 164 167 174 163 165 177 173 172 183 195 184 191 172 194 153 169 116 109 123 93 81 85 92 100 85 79 83 78 90 85 93 85 83 81 94 85 88 94 120 145 119 91 94 83 70 68 65 43 23 23 20 17 19 10 9 6 0 348 341 345 330 317 315 309 301 300 307 307 306 302 294 285 281
127 121 122 125 137 143 145 141 150 160 147 196 188 143 148 168 245 114 147 152 162 159 159 161 174 174 169 161 178 158 184 166 180 207 213 196 196 153 158 121 132 96 135 113 94 84 91 75 72 70 74 81 75 70 89 89 88 93 95 103 117 129 159 112 87 80 84 72 59 45 46 38 28 39 24 19 13 13 15 4 357 351 348 334 322 321 308 303 297 301 296 299 299 294 295 294 280
142 149 143 138 154 150 170 165 154 223 144 182 186 154 193 193 164 121 143 155 170 170 160 170 178 165 177 176 180 171 189 177 179 205 191 193 140 115 173 144 135 163 93 101 96 101 93 91 88 74 66 71 72 64 84 88 100 109 120 139 141 140 131 111 90 79 69 70 61 43 41 34 32 28 28 18 8 22 23 7 7 4 353 345 334 325 307 299 292 289 299 301 293 299 298 299 297
166 201 124 173 186 188 173 157 162 189 126 183 171 202 146 165 133 147 147 162 169 171 171 176 178 181 182 179 178 181 172 179 190 190 160 180 163 158 155 126 127 127 110 104 94 88 85 90 82 87 95 85 79 95 94 100 96 115 125 119 111 131 95 91 82 74 70 67 64 43 40 33 28 25 21 21 5 20 18 17 2 359 351 336 326 319 314 310 312 317 313 309 318 305 308 307 305
191 135 240 293 243 112 158 176 166 201 136 190 192 305 125 152 156 153 163 166 172 176 175 183 179 181 189 189 183 179 170 192 170 173 150 163 165 141 137 132 126 98 97 91 79 70 83 80 70 95 97 104 122 110 111 111 125 126 117 99 90 61 76 57 70 80 72 58 56 58 37 36 32 27 21 13 16 3 8 10 357 356 346 320 322 331 317 315 320 323 326 325 318 312 316 315 302
174 218 180 177 305 127 172 175 173 200 162 197 216 260 82 163 154 160 164 177 179 179 180 180 184 184 186 185 195 186 183 151 153 151 154 164 162 145 152 136 125 111 89 92 95 82 94 98 103 95 102 111 105 106 106 106 108 84 80 91 82 65 59 67 68 60 60 69 68 71 49 46 37 31 25 13 4 5 360 351 358 352 337 329 339 329 309 318 326 318 321 314 314 315 312 305 305
190 272 1 347 287 52 184 184 185 211 149 190 216 303 108 153 154 159 166 186 187 190 179 183 183 187 187 189 190 191 160 163 157 150 152 164 166 146 154 142 143 127 106 92 106 115 116 114 126 124 123 111 100 103 111 115 113 114 94 81 77 67 65 67 58 51 53 53 41 52 52 44 39 32 23 13 1 356 356 349 356 350 339 344 337 329 327 334 330 325 318 319 310 305 303 300 305
189 195 311 347 320 349 29 151 187 187 196 200 210 237 287 107 155 168 170 189 196 198 185 183 182 184 189 185 194 176 174 164 154 155 161 167 153 158 135 142 143 115 123 108 99 117 122 132 128 118 120 115 115 119 115 113 105 108 96 83 72 72 60 49 51 42 42 37 45 44 39 38 38 29 20 10 2 351 352 353 350 352 346 342 347 329 343 342 341 335 326 326 322 308 301 305 315
340 333 275 307 207 207 335 311 164 186 198 231 209 232 241 164 166 171 179 188 200 205 192 185 182 180 183 183 192 173 175 170 153 160 154 159 149 165 133 159 147 118 116 118 137 153 129 131 116 124 129 124 125 121 112 109 112 104 111 113 98 91 75 53 32 41 34 31 39 42 39 36 36 35 22 14 3 352 353 1 355 351 350 347 345 342 345 349 344 338 330 328 321 310 305 316 324
321 323 320 310 317 2 320 353 147 188 191 214 220 228 224 208 173 179 182 192 198 210 203 191 186 180 177 180 183 171 178 159 151 146 155 156 150 160 141 151 139 126 100 114 113 131 134 115 115 127 126 125 137 133 141 130 131 124 106 114 101 65 54 51 42 47 42 44 41 36 41 39 36 28 21 15 7 3 356 3 359 353 353 353 349 350 349 348 343 335 336 329 322 322 310 324 332
307 280 285 296 318 303 96 323 144 193 214 220 224 231 239 223 199 181 188 190 200 210 210 199 194 184 179 175 175 169 170 147 154 144 152 152 152 156 146 132 151 141 113 86 104 139 147 117 136 124 120 128 137 144 144 130 119 110 91 70 86 90 72 79 66 54 51 56 48 46 42 39 33 28 27 19 14 6 2 3 360 2 347 357 348 350 348 341 340 334 337 326 328 328 329 337 338
284 296 289 297 310 318 37 355 146 185 229 222 220 234 237 232 215 191 183 193 203 206 210 204 202 193 180 176 166 166 153 142 149 150 149 153 160 159 160 144 138 139 114 101 132 122 136 134 144 120 126 116 119 142 287 118 152 111 121 91 69 84 88 67 71 67 67 69 57 46 43 37 34 32 27 21 21 13 5 4 3 3 353 354 344 343 343 342 343 344 343 336 337 327 326 342 344
274 272 286 294 294 336 80 44 153 172 226 253 209 239 238 231 213 205 189 197 206 208 209 209 202 201 183 180 165 159 154 155 157 151 156 160 163 161 156 155 137 135 131 147 136 134 131 129 144 139 143 147 145 131 294 116 81 62 66 80 51 72 47 51 62 66 61 53 55 50 42 37 21 33 27 27 27 19 13 5 4 2 1 351 346 346 345 347 352 345 346 341 338 331 331 351 353
263 264 268 279 316 303 168 136 164 171 228 315 226 262 258 234 221 211 202 201 205 211 212 211 207 204 193 184 170 162 156 155 162 160 161 166 165 159 153 149 147 136 124 114 115 119 105 152 147 143 134 149 135 88 1 111 102 92 80 77 69 62 89 94 93 87 74 64 61 50 44 33 29 27 26 26 32 24 16 7 359 356 358 355 346 347 342 346 354 345 346 340 341 333 340 348 354
245 253 268 274 301 360 328 28 142 174 214 228 265 260 258 241 220 210 206 206 208 206 211 216 212 205 198 187 172 166 158 156 159 161 163 166 167 162 151 143 139 142 138 139 158 147 111 117 213 149 148 150 136 112 108 88 118 117 110 111 113 114 137 132 122 88 72 55 42 42 42 41 34 30 23 23 16 20 15 8 358 353 354 354 347 345 346 340 354 345 346 335 343 342 334 337 348
262 259 275 296 313 311 16 140 185 202 207 210 226 262 243 234 274 233 191 195 205 202 205 207 203 194 191 188 173 167 158 156 157 166 166 165 164 155 145 141 133 138 123 123 125 114 131 135 159 190 158 148 137 130 133 157 156 135 153 160 137 143 127 102 49 34 32 30 33 45 50 35 34 36 33 20 20 15 13 8 3 352 355 350 346 344 337 329 355 354 349 341 337 345 337 328 344
251 255 296 313 308 309 251 225 256 258 321 147 212 271 300 148 187 231 198 192 202 200 211 211 201 195 188 184 171 166 161 157 155 160 163 163 160 152 139 128 138 128 118 116 117 119 121 143 144 139 126 125 129 131 150 173 144 173 182 62 76 97 105 86 90 67 40 40 45 35 44 37 29 27 35 25 21 16 13 11 5 356 354 348 340 339 338 342 347 359 349 343 340 339 342 337 346
259 64 267 319 282 266 254 265 273 302 15 178 221 237 269 278 240 173 167 198 207 208 214 215 207 197 190 180 168 163 162 162 159 161 165 161 156 145 124 136 138 129 122 121 115 117 115 113 117 120 118 117 117 132 147 117 126 89 73 73 79 65 73 101 97 87 72 41 26 24 31 38 36 26 21 30 20 17 10 7 2 357 350 348 339 343 343 346 345 355 352 344 342 344 349 352 348
264 103 311 277 281 277 269 266 272 315 305 247 197 183 248 256 97 186 175 198 213 218 216 215 208 196 185 173 161 158 163 167 163 164 164 157 155 139 130 143 133 124 125 123 114 106 109 114 113 108 107 107 113 100 91 83 74 88 99 103 88 79 85 84 90 56 50 31 34 34 19 6 24 32 34 12 20 13 11 1 355 355 349 348 341 348 343 345 351 356 351 352 353 350 358 3 0
236 173 245 257 250 257 255 250 262 248 276 273 239 188 266 275 238 238 165 251 240 229 222 219 210 195 177 165 156 159 164 169 167 163 161 153 143 134 141 142 136 132 124 119 116 114 112 107 103 101 98 102 101 101 101 95 87 75 94 89 98 79 58 63 31 43 31 20 37 31 26 21 356 9 359 18 7 9 10 358 352 353 352 350 344 346 341 339 347 357 354 1 2 354 6 9 10
43 206 223 220 235 231 221 259 269 262 252 273 282 198 263 285 253 295 299 264 267 279 213 211 201 189 166 156 149 163 164 170 167 164 161 146 145 146 144 134 131 124 125 123 120 115 111 105 102 99 100 101 99 96 95 107 116 103 91 86 80 74 52 39 42 38 34 33 12 14 10 11 5 8 357 7 359 1 8 355 351 353 352 345 346 344 347 346 350 2 4 6 17 12 15 13 16
225 233 242 224 224 239 259 217 348 278 264 265 2 280 244 261 249 275 335 101 253 271 338 67 133 153 148 148 157 162 164 163 167 162 150 138 147 146 130 125 126 124 119 119 116 112 108 108 108 104 99 98 99 106 114 104 103 91 82 75 72 58 35 28 29 31 30 26 18 23 12 7 0 356 4 360 2 357 359 357 354 352 351 348 352 349 353 358 358 2 19 19 22 22 21 21 19
222 235 237 235 229 228 242 214 229 233 263 165 222 245 249 241 276 304 262 214 194 282 29 48 72 121 140 152 156 161 161 166 163 150 143 149 140 121 116 120 123 116 115 116 117 114 111 112 113 110 106 109 113 112 101 94 87 81 69 67 66 54 48 41 32 32 21 23 17 18 17 8 356 2 9 3 360 354 353 359 357 354 352 352 349 354 4 5 1 15 18 28 27 20 20 17 18
219 223 225 230 241 225 237 239 244 251 246 129 271 284 270 282 260 227 278 265 12 54 63 70 74 114 134 144 153 161 169 168 159 150 150 147 138 136 125 114 115 116 108 118 121 120 120 121 117 114 114 115 111 95 91 92 87 84 72 57 55 57 52 36 38 28 24 27 20 21 12 9 15 3 6 7 358 353 353 2 354 359 354 351 354 5 11 18 16 25 26 19 26 23 12 9 18
216 224 229 234 241 252 249 249 253 253 267 148 158 237 266 274 51 346 52 87 69 73 83 92 97 114 129 143 154 163 168 159 149 152 146 140 134 123 117 124 118 111 114 120 123 121 122 120 118 115 118 115 105 100 97 93 90 83 70 54 49 48 38 37 39 25 19 18 25 30 8 360 9 12 7 4 359 356 2 359 358 6 4 9 14 9 24 35 26 27 28 21 13 18 16 4 5
225 217 228 239 239 245 263 280 277 257 251 219 189 254 278 282 93 152 225 164 91 86 100 110 112 122 136 145 155 162 156 148 153 144 130 128 115 116 128 140 143 137 135 133 130 127 123 121 123 122 120 117 110 103 98 92 82 73 62 61 59 55 56 63 69 42 47 27 30 15 32 21 16 1 8 3 3 7 6 1 8 17 19 25 15 20 29 32 31 29 23 12 11 15 6 7 2
202 222 226 235 249 249 256 245 268 289 262 270 239 219 248 263 237 223 218 137 92 95 102 108 118 132 141 146 155 155 140 143 148 141 126 124 127 145 157 152 143 136 134 131 128 123 121 123 127 124 118 118 110 102 97 88 86 80 69 63 61 62 52 39 33 33 34 43 32 31 40 21 17 8 5 4 4 16 10 10 16 31 33 26 36 31 29 28 22 29 23 19 11 12 2 8 5
261 223 226 216 263 292 262 266 218 238 263 257 250 272 281 280 295 129 200 130 106 104 109 116 127 140 145 149 150 142 144 150 148 133 153 157 152 163 162 152 143 138 134 125 115 113 129 132 139 130 124 117 107 106 106 102 91 80 77 74 54 37 41 41 33 36 52 64 64 49 19 30 20 14 13 9 7 19 16 30 33 44 38 39 36 33 29 21 10 17 15 20 21 2 3 356 7
257 268 298 214 199 214 219 251 247 248 247 262 247 251 267 278 303 315 324 111 113 110 114 121 130 139 143 143 138 140 146 154 157 160 150 146 156 167 153 149 143 132 130 125 125 136 146 145 136 125 120 115 117 115 107 96 85 75 62 48 51 52 49 55 76 82 68 69 60 46 42 29 20 24 23 15 19 15 24 42 40 50 50 43 38 32 25 22 11 7 2 5 22 6 0 2 2
239 256 265 220 278 251 226 215 258 254 261 262 257 263 270 290 21 308 61 98 113 121 120 122 128 134 140 141 146 149 155 165 165 143 150 151 155 161 153 148 137 133 128 129 133 147 146 134 127 117 111 114 121 118 111 100 87 86 83 80 73 68 61 62 72 80 87 68 56 54 38 39 31 20 25 25 25 31 34 38 46 46 45 34 25 29 21 19 15 13 10 16 23 13 9 12 8
194 216 240 208 224 342 305 249 246 243 262 258 277 269 287 33 24 55 72 90 113 117 119 122 129 133 139 149 154 158 162 165 148 147 150 141 153 155 146 146 139 133 129 134 145 141 136 137 133 129 131 135 127 120 113 105 106 98 92 85 81 75 69 65 68 80 81 73 63 55 46 40 43 28 20 34 31 46 38 50 50 45 39 37 32 22 25 23 24 15 17 23 24 19 8 11 8
206 206 220 220 212 206 223 241 206 251 250 261 267 269 283 76 27 51 81 96 105 113 120 125 133 140 143 151 158 160 164 156 139 146 149 148 160 146 137 138 140 136 139 141 139 135 133 134 138 140 141 133 134 123 111 116 110 102 97 93 87 80 78 78 78 63 69 72 64 53 45 31 40 39 32 41 38 53 43 46 48 42 39 40 37 35 27 27 22 19 17 15 20 17 13 18 14